Terminal Aerodrome Forecast
Issued by NWS Salt Lake City, UT

Home | Current Version | Previous Version | Text Only | Print | Product List | Glossary On
Versions: 1 2 3 4 5 6 7 8 9 10 11 12 13 14 15 16 17 18 19 20 21 22 23 24 25 26 27 28 29 30 31 32 33 34 35 36 37 38 39 40 41 42 43 44 45 46 47 48 49 50
000
FTUS45 KSLC 251253 AAA
TAFSLC
TAF AMD
KSLC 251253Z 2513/2618 28015G25KT 2SM -SN BR SCT015 BKN025
     FM251800 35010KT 2SM -SN BR SCT008 BKN015
     FM260300 25006KT P6SM -SHSN SCT015 BKN035=

USA.gov is the U.S. government's official web portal to all federal, state and local government web resources and services.